Home   Weather   Yangon   Past weeks
Flag for Myanmar

Past Weather in Yangon, Myanmar — Yesterday and Last 2 Weeks

Now
90 °F

Partly sunny.


Feels Like: 103 °F
Forecast: 90 / 80 °F
Wind: 9 mph from Southwest

Location: Rangoon Airport

Current Time: Jul 19, 2019 at 2:41:03 pm

Latest Report: Jul 19, 2019 at 1:30 pm


Visibility: 4 mi

Pressure: 29.65 "Hg

Humidity: 67%

Dew Point: 77 °F

Location of YangonLocation

Past Weather in Yangon — Graph

°F

Yangon Temperature Yesterday

Maximum temperature yesterday: 91 °F (at 3:30 pm)
Minimum temperature yesterday: 77 °F (at 12:00 am)
Average temperature yesterday: 84 °F

High & Low Weather Summary for the Past Weeks

 TemperatureHumidityPressure
High91 °F (Jul 18, 3:30 pm)100% (Jul 4, 12:30 pm)29.89 "Hg (Jul 4, 12:30 pm)
Low75 °F (Jul 6, 12:00 am)59% (Jul 18, 3:30 pm)29.59 "Hg (Jul 17, 3:30 pm)
Average81 °F89%29.73 "Hg
* Reported Jul 4 12:30 pm — Jul 19 1:00 pm, Yangon. Weather by CustomWeather, © 2019

Note: Actual official high and low records may vary slightly from our data, if they occured in-between our weather recording intervals... More about our weather records

Advertising

Yangon Weather History for the Previous 24 Hours

Scroll right to see more
 ConditionsComfort  
Time TempWeatherWind HumidityBarometerVisibility
1:00 pm
Fri, Jul 19
90 °FScattered clouds.5 mph67%29.68 "Hg4 mi
12:30 pm90 °FScattered clouds.6 mph67%29.71 "Hg4 mi
12:00 pm90 °FPartly sunny.6 mph67%29.71 "Hg4 mi
11:00 am90 °FPartly sunny.7 mph67%29.71 "Hg4 mi
10:30 am88 °FPartly sunny.7 mph70%29.71 "Hg4 mi
10:00 am88 °FPartly sunny.7 mph70%29.71 "Hg4 mi
9:30 am86 °FPartly sunny.6 mph75%29.71 "Hg4 mi
9:00 am86 °FPartly sunny.7 mph75%29.68 "Hg4 mi
8:30 am84 °FPartly sunny.6 mph74%29.68 "Hg4 mi
8:00 am84 °FPartly sunny.6 mph74%29.68 "Hg4 mi
7:30 am82 °FScattered clouds.5 mph84%29.68 "Hg4 mi
7:00 am81 °FScattered clouds.2 mph84%29.68 "Hg4 mi
6:30 am79 °FScattered clouds.2 mph94%29.65 "Hg4 mi
6:00 am79 °FPassing clouds.2 mph94%29.65 "Hg4 mi
5:30 am79 °FPassing clouds.No wind94%29.65 "Hg4 mi
5:00 am79 °FPassing clouds.No wind94%29.65 "Hg4 mi
4:30 am79 °FPassing clouds.2 mph94%29.65 "Hg4 mi
4:00 am79 °FPassing clouds.3 mph94%29.62 "Hg4 mi
3:30 am79 °FPassing clouds.3 mph94%29.62 "Hg4 mi
3:00 am79 °FPassing clouds.3 mph94%29.62 "Hg4 mi
2:30 am79 °FPassing clouds.2 mph94%29.65 "Hg4 mi
2:00 am79 °FPassing clouds.3 mph94%29.65 "Hg4 mi
1:30 am79 °FPassing clouds.3 mph94%29.65 "Hg4 mi
1:00 am81 °FPassing clouds.3 mph84%29.65 "Hg4 mi
12:30 am81 °FPassing clouds.3 mph84%29.65 "Hg4 mi
12:00 am81 °FPassing clouds.5 mph84%29.65 "Hg4 mi
11:30 pm
Thu, Jul 18
81 °FPassing clouds.5 mph84%29.65 "Hg4 mi
11:00 pm81 °FPassing clouds.5 mph84%29.65 "Hg4 mi
10:30 pm81 °FPassing clouds.6 mph84%29.65 "Hg4 mi
10:00 pm81 °FPassing clouds.6 mph84%29.65 "Hg4 mi
9:30 pm81 °FPartly cloudy.3 mph84%29.65 "Hg4 mi
9:00 pm82 °FPartly cloudy.5 mph84%29.65 "Hg4 mi
8:30 pm84 °FPartly cloudy.5 mph79%29.65 "Hg4 mi
8:00 pm86 °FPassing clouds.5 mph75%29.65 "Hg4 mi
7:30 pm86 °FPassing clouds.5 mph75%29.65 "Hg4 mi
7:00 pm88 °FPartly sunny.5 mph70%29.62 "Hg4 mi
6:30 pm90 °FPartly sunny.6 mph63%29.62 "Hg4 mi
6:00 pm90 °FPartly sunny.6 mph63%29.59 "Hg4 mi
5:30 pm91 °FPartly sunny.7 mph59%29.59 "Hg4 mi
5:00 pm91 °FPartly sunny.9 mph59%29.59 "Hg4 mi
4:30 pm91 °FPartly sunny.7 mph59%29.59 "Hg4 mi
4:00 pm91 °FPartly sunny.6 mph59%29.59 "Hg4 mi
3:30 pm91 °FPartly sunny.6 mph59%29.62 "Hg4 mi
3:00 pm90 °FPartly sunny.6 mph67%29.59 "Hg4 mi
2:30 pm90 °FPartly sunny.5 mph67%29.62 "Hg4 mi
2:00 pm90 °FPartly sunny.12 mph67%29.62 "Hg4 mi
Weather by CustomWeather, © 2019

See weather overview